Location: Cerroniocc
(13.7547°S, 72.0222°W)
Time: 20:00:08
(UTC+00:00)

Cosmos 1892 Rocket - Pass Details

Date: 05 July 2020
Orbit: 607 x 632 km, 82.5° (Epoch: 11 August)

Event Time Altitude Azimuth Distance (km) Brightness Sun altitude
Rises 23:47:42 0° 186° (S) 2,885 6.9 -17.7°
Reaches altitude 10° 23:49:56 10° 186° (S) 1,973 6.0 -18.2°
Maximum altitude 23:54:17 83° 272° (W) 618 3.5 -19.2°
Drops below altitude 10° 23:58:36 10° 1° (N) 1,948 6.3 -20.2°
Sets 00:00:48 0° 2° (N) 2,845 7.2 -20.7°
